EN

Hourly Weather Dziunin

Today, 25 October, Sunday

Time Temperature Precipitation Wind Pressure Humidity
00:00 +10°C° 0 mm 3 mps 751 mmHg 93%
01:00 +10°C° 0 mm 3 mps 751 mmHg 93%
02:00 +9°C° 0 mm 3 mps 750 mmHg 94%
03:00 +9°C° 0 mm 3 mps 750 mmHg 94%
04:00 +9°C° 0 mm 3 mps 750 mmHg 95%
05:00 +9°C° 0 mm 3 mps 750 mmHg 94%
06:00 +8°C° 0 mm 3 mps 750 mmHg 94%
07:00 +8°C° 0 mm 3 mps 750 mmHg 94%
08:00 +10°C° 0 mm 3 mps 750 mmHg 88%
09:00 +11°C° 0 mm 4 mps 750 mmHg 82%
10:00 +13°C° 0 mm 4 mps 750 mmHg 77%
11:00 +14°C° 0 mm 4 mps 750 mmHg 73%
12:00 +15°C° 0 mm 4 mps 749 mmHg 70%
13:00 +16°C° 0 mm 5 mps 749 mmHg 66%
14:00 +15°C° 0 mm 4 mps 749 mmHg 69%
15:00 +14°C° 0 mm 4 mps 748 mmHg 73%
16:00 +14°C° 0 mm 3 mps 747 mmHg 76%
17:00 +13°C° 0 mm 3 mps 748 mmHg 80%
18:00 +12°C° 0 mm 4 mps 748 mmHg 84%
19:00 +12°C° 0 mm 4 mps 748 mmHg 87%
20:00 +12°C° 0 mm 4 mps 748 mmHg 88%
21:00 +11°C° 0 mm 4 mps 747 mmHg 88%
22:00 +11°C° 0 mm 4 mps 747 mmHg 88%
23:00 +11°C° 0 mm 4 mps 747 mmHg 89%

Tomorrow, 26 October, Monday

Time Temperature Precipitation Wind Pressure Humidity
00:00 +10°C° 0 mm 4 mps 747 mmHg 91%
01:00 +10°C° 0 mm 3 mps 746 mmHg 92%
02:00 +9°C° 0 mm 3 mps 746 mmHg 93%
03:00 +9°C° 0 mm 3 mps 746 mmHg 94%
04:00 +9°C° 0 mm 2 mps 746 mmHg 95%
05:00 +8°C° 0 mm 2 mps 745 mmHg 95%
06:00 +8°C° 0 mm 3 mps 745 mmHg 96%
07:00 +8°C° 0 mm 3 mps 745 mmHg 96%
08:00 +9°C° 0 mm 3 mps 745 mmHg 92%
09:00 +11°C° 0 mm 3 mps 745 mmHg 87%
10:00 +12°C° 0 mm 3 mps 745 mmHg 83%
11:00 +13°C° 0 mm 3 mps 745 mmHg 80%
12:00 +14°C° 0 mm 3 mps 745 mmHg 77%
13:00 +16°C° 0 mm 3 mps 745 mmHg 73%
14:00 +14°C° 0 mm 3 mps 744 mmHg 75%
15:00 +14°C° 0 mm 3 mps 744 mmHg 78%
16:00 +14°C° 0 mm 2 mps 744 mmHg 80%
17:00 +14°C° 0.1 mm 2 mps 744 mmHg 81%
18:00 +14°C° 0.1 mm 2 mps 744 mmHg 82%
19:00 +13°C° 0.1 mm 2 mps 745 mmHg 84%
20:00 +13°C° 0.1 mm 2 mps 745 mmHg 86%
21:00 +13°C° 0.1 mm 1 mps 745 mmHg 88%
22:00 +13°C° 0.1 mm 1 mps 745 mmHg 90%
23:00 +12°C° 0 mm 1 mps 745 mmHg 91%

Day after tomorrow, 27 October, Tuesday

Time Temperature Precipitation Wind Pressure Humidity
00:00 +12°C° 0 mm 2 mps 745 mmHg 93%
01:00 +10°C° 0 mm 2 mps 746 mmHg 94%
02:00 +10°C° 0 mm 2 mps 746 mmHg 93%
03:00 +10°C° 0 mm 2 mps 746 mmHg 93%
04:00 +10°C° 0 mm 2 mps 746 mmHg 92%
05:00 +10°C° 0 mm 2 mps 746 mmHg 92%
06:00 +11°C° 0 mm 1 mps 746 mmHg 91%
07:00 +11°C° 0 mm 1 mps 746 mmHg 91%
08:00 +11°C° 0.1 mm 1 mps 747 mmHg 90%
09:00 +11°C° 0.1 mm 1 mps 747 mmHg 89%
10:00 +11°C° 0.1 mm 1 mps 747 mmHg 89%
11:00 +11°C° 0.2 mm 1 mps 747 mmHg 89%
12:00 +11°C° 0.2 mm 1 mps 747 mmHg 90%
13:00 +11°C° 0.2 mm 1 mps 747 mmHg 91%
14:00 +10°C° 0.3 mm 2 mps 747 mmHg 91%
15:00 +10°C° 0.3 mm 2 mps 747 mmHg 91%
16:00 +10°C° 0.3 mm 3 mps 747 mmHg 91%
17:00 +9°C° 0.4 mm 2 mps 747 mmHg 91%
18:00 +9°C° 0.4 mm 2 mps 747 mmHg 92%
19:00 +9°C° 0.4 mm 2 mps 747 mmHg 92%
20:00 +9°C° 0.1 mm 2 mps 748 mmHg 92%
21:00 +9°C° 0.1 mm 2 mps 748 mmHg 92%
22:00 +9°C° 0.1 mm 2 mps 748 mmHg 91%
23:00 +8°C° 0 mm 2 mps 748 mmHg 92%

28 October, Wednesday

Time Temperature Precipitation Wind Pressure Humidity
00:00 +8°C° 0 mm 3 mps 748 mmHg 93%
01:00 +7°C° 0 mm 3 mps 749 mmHg 93%
02:00 +7°C° 0 mm 3 mps 749 mmHg 93%
03:00 +7°C° 0 mm 3 mps 749 mmHg 92%
04:00 +7°C° 0 mm 3 mps 749 mmHg 91%
05:00 +7°C° 0 mm 3 mps 749 mmHg 91%
06:00 +5°C° 0 mm 3 mps 749 mmHg 90%
07:00 +5°C° 0 mm 3 mps 749 mmHg 90%
08:00 +7°C° 0 mm 4 mps 749 mmHg 83%
09:00 +8°C° 0 mm 5 mps 749 mmHg 76%
10:00 +10°C° 0 mm 6 mps 749 mmHg 69%
11:00 +10°C° 0 mm 6 mps 749 mmHg 66%
12:00 +11°C° 0 mm 6 mps 749 mmHg 63%
13:00 +13°C° 0 mm 6 mps 749 mmHg 59%
14:00 +12°C° 0 mm 5 mps 749 mmHg 63%
15:00 +12°C° 0 mm 4 mps 749 mmHg 66%
16:00 +11°C° 0 mm 3 mps 749 mmHg 70%
17:00 +10°C° 0 mm 3 mps 749 mmHg 73%
18:00 +10°C° 0 mm 3 mps 749 mmHg 75%
19:00 +8°C° 0 mm 4 mps 749 mmHg 78%
20:00 +8°C° 0 mm 4 mps 749 mmHg 78%
21:00 +8°C° 0 mm 4 mps 749 mmHg 78%
22:00 +8°C° 0 mm 4 mps 749 mmHg 78%
23:00 +8°C° 0 mm 4 mps 749 mmHg 79%

29 October, Thursday

Time Temperature Precipitation Wind Pressure Humidity
00:00 +7°C° 0 mm 4 mps 749 mmHg 81%
01:00 +7°C° 0 mm 4 mps 749 mmHg 82%
02:00 +7°C° 0 mm 4 mps 749 mmHg 82%
03:00 +7°C° 0 mm 4 mps 748 mmHg 83%
04:00 +7°C° 0 mm 4 mps 748 mmHg 83%
05:00 +7°C° 0 mm 4 mps 748 mmHg 84%
06:00 +7°C° 0 mm 4 mps 748 mmHg 84%
07:00 +7°C° 0 mm 5 mps 748 mmHg 85%
08:00 +8°C° 0.2 mm 5 mps 749 mmHg 84%
09:00 +8°C° 0.2 mm 5 mps 749 mmHg 83%
10:00 +9°C° 0.2 mm 6 mps 749 mmHg 83%
11:00 +10°C° 0.1 mm 6 mps 749 mmHg 77%
12:00 +11°C° 0.1 mm 6 mps 749 mmHg 72%
13:00 +11°C° 0.1 mm 7 mps 750 mmHg 66%
14:00 +11°C° 0.1 mm 6 mps 750 mmHg 69%
15:00 +10°C° 0.1 mm 5 mps 750 mmHg 71%
16:00 +11°C° 0.1 mm 4 mps 750 mmHg 74%
17:00 +10°C° 0 mm 4 mps 751 mmHg 77%
18:00 +8°C° 0 mm 4 mps 751 mmHg 80%
19:00 +8°C° 0 mm 3 mps 752 mmHg 83%
20:00 +7°C° 0 mm 4 mps 752 mmHg 83%
21:00 +7°C° 0 mm 4 mps 752 mmHg 83%
22:00 +7°C° 0 mm 4 mps 752 mmHg 84%
23:00 +7°C° 0 mm 4 mps 752 mmHg 84%

30 October, Friday

Time Temperature Precipitation Wind Pressure Humidity
00:00 +7°C° 0 mm 4 mps 752 mmHg 84%
01:00 +7°C° 0 mm 5 mps 752 mmHg 84%
02:00 +7°C° 0 mm 5 mps 752 mmHg 83%
03:00 +8°C° 0 mm 5 mps 751 mmHg 82%
04:00 +8°C° 0 mm 6 mps 751 mmHg 81%
05:00 +8°C° 0.1 mm 6 mps 751 mmHg 83%
06:00 +9°C° 0.1 mm 6 mps 751 mmHg 85%
07:00 +9°C° 0.1 mm 6 mps 751 mmHg 87%
08:00 +10°C° 0 mm 6 mps 751 mmHg 85%
09:00 +11°C° 0 mm 6 mps 752 mmHg 83%
10:00 +13°C° 0 mm 6 mps 752 mmHg 81%
11:00 +13°C° 0 mm 6 mps 752 mmHg 79%
12:00 +14°C° 0 mm 6 mps 752 mmHg 77%
13:00 +14°C° 0 mm 6 mps 752 mmHg 75%
14:00 +14°C° 0 mm 6 mps 752 mmHg 77%
15:00 +14°C° 0 mm 5 mps 752 mmHg 78%
16:00 +13°C° 0 mm 5 mps 753 mmHg 79%
17:00 +13°C° 0 mm 5 mps 753 mmHg 79%
18:00 +13°C° 0 mm 4 mps 753 mmHg 79%
19:00 +13°C° 0 mm 4 mps 753 mmHg 79%
20:00 +12°C° 0 mm 4 mps 753 mmHg 80%
21:00 +12°C° 0 mm 4 mps 753 mmHg 82%
22:00 +12°C° 0 mm 4 mps 753 mmHg 83%
23:00 +11°C° 0 mm 4 mps 753 mmHg 85%
Show more